BMCB-10 Weather Reports


time (UTC)temp
C
wind
direction
speed
KPH
gust
KPH
rain 1hr
cm
rain 24hr
cm
rain mn
cm
humidity
%
barometer
mb
20260503033028 10 0 0.0 0.0 0.00 0.51 0.03 10 1012.0
20260503032027 10 0 0.0 0.0 0.00 0.51 0.03 10 1012.0
20260503030021 10 0 0.0 0.0 0.00 0.51 0.03 10 1012.0
20260503024021 10 0 0.0 0.0 0.00 0.51 0.03 10 1012.1
20260503023021 10 0 0.0 0.0 0.00 0.51 0.03 10 1012.1
20260503022021 11 0 0.0 0.0 0.00 0.51 0.03 10 1012.3
20260503020024 10 0 0.0 0.0 0.00 0.51 0.03 10 1012.4
20260503014020 11 0 0.0 0.0 0.00 0.51 0.03 10 1012.5
20260503013021 11 0 0.0 0.0 0.00 0.51 0.03 10 1012.7
20260503012031 11 0 0.0 0.0 0.03 0.51 0.03 10 1012.8
20260503010020 11 0 0.0 0.0 0.03 0.51 0.03 10 1012.9
20260503005019 11 0 0.0 0.0 0.03 0.51 0.03 10 1012.9
20260503003022 11 0 0.0 0.0 0.03 0.51 0.03 10 1013.1
20260503002020 10 0 0.0 0.0 0.03 0.51 0.03 10 1013.2
20260503001020 10 0 0.0 0.0 0.00 0.48 0.00 10 1013.3
20260502235022 10 0 0.0 0.0 0.00 0.48 0.00 10 1013.6
20260502234029 11 0 0.0 0.0 0.00 0.48 0.00 10 1013.6
20260502232031 11 0 0.0 0.0 0.00 0.48 0.00 10 1013.7
20260502231034 11 0 0.0 0.0 0.00 0.48 0.00 10 1013.8
20260502230036 11 0 0.0 0.0 0.00 0.48 0.00 10 1013.9
20260502225023 11 0 0.0 0.0 0.00 0.48 0.00 10 1014.0
20260502224030 11 0 0.0 0.0 0.00 0.48 0.00 10 1013.8
20260502223033 11 0 0.0 0.0 0.00 0.48 0.00 10 1013.8
20260502222039 11 0 0.0 0.0 0.00 0.48 0.00 10 1013.8
20260502221051 11 0 0.0 0.0 0.00 0.48 0.00 10 1013.8
20260502220039 11 0 0.0 0.0 0.00 0.48 0.00 10 1013.8
20260502215054 11 0 0.0 0.0 0.00 0.48 0.48 10 1013.9
20260502214021 11 0 0.0 0.0 0.00 0.48 0.48 10 1013.9
20260502213022 11 0 0.0 0.0 0.00 0.48 0.48 10 1014.0
20260502212043 11 0 0.0 0.0 0.00 0.48 0.48 10 1014.1
20260502211021 11 0 0.0 0.0 0.00 0.48 0.48 10 1014.1
20260502210023 12 0 0.0 0.0 0.00 0.48 0.48 10 1014.1
20260502205049 12 0 0.0 0.0 0.00 0.48 0.48 10 1014.1
20260502204022 12 0 0.0 0.0 0.00 0.48 0.48 10 1014.2
20260502203022 12 0 0.0 0.0 0.00 0.48 0.48 10 1014.2
20260502201026 12 0 0.0 0.0 0.00 0.48 0.48 10 1014.4
20260502200049 13 0 0.0 0.0 0.00 0.48 0.48 10 1014.5
20260502195021 13 0 0.0 0.0 0.00 0.48 0.48 10 1014.5
20260502194020 13 0 0.0 0.0 0.00 0.48 0.48 10 1014.6
20260502193021 13 0 0.0 0.0 0.05 0.48 0.48 10 1014.6
20260502192048 13 0 0.0 0.0 0.05 0.48 0.48 10 1014.6
20260502190037 14 0 0.0 0.0 0.13 0.48 0.48 10 1014.6
20260502185039 14 0 0.0 0.0 0.23 0.48 0.48 10 1014.7
20260502184042 14 0 0.0 0.0 0.23 0.48 0.48 10 1014.8
20260502183051 14 0 0.0 0.0 0.23 0.48 0.48 10 1015.0
20260502182049 15 0 0.0 0.0 0.18 0.43 0.43 10 1015.1
20260502181022 15 0 0.0 0.0 0.20 0.43 0.43 10 1015.2
20260502164022 20 0 0.0 0.0 0.00 0.00 0.00 79 1013.9
20260502162024 21 0 0.0 0.0 0.00 0.00 0.00 76 1014.3
20260502161023 20 0 0.0 0.0 0.00 0.00 0.00 80 1014.5
20260502151053 23 0 0.0 0.0 0.00 0.00 0.00 57 1014.9
20260502123022 23 0 0.0 0.0 0.00 0.00 0.00 58 1016.8
20260502121019 22 0 0.0 0.0 0.00 0.00 0.00 62 1017.3
20260502115022 23 0 0.0 0.0 0.00 0.00 0.00 57 1017.5
20260502114021 23 0 0.0 0.0 0.00 0.00 0.00 58 1017.5
20260502113022 22 0 0.0 0.0 0.00 0.00 0.00 57 1017.7
20260502112020 22 0 0.0 0.0 0.00 0.00 0.00 59 1017.8
20260502111021 22 0 0.0 0.0 0.00 0.00 0.00 58 1017.9
20260502105022 22 0 0.0 0.0 0.00 0.00 0.00 59 1018.0
20260502103035 22 0 0.0 0.0 0.00 0.00 0.00 58 1018.3
20260502102022 21 0 0.0 0.0 0.00 0.00 0.00 59 1018.5
20260502101023 21 0 0.0 0.0 0.00 0.00 0.00 60 1018.6
20260502091021 20 0 0.0 0.0 0.00 0.00 0.00 62 1019.1
20260502071031 12 0 0.0 0.0 0.00 0.00 0.00 88 1020.0
20260502070033 12 0 0.0 0.0 0.00 0.00 0.00 91 1020.1
20260502065022 11 0 0.0 0.0 0.00 0.00 0.00 93 1020.1
20260502064022 11 0 0.0 0.0 0.00 0.00 0.00 94 1020.1
20260502063021 10 0 0.0 0.0 0.00 0.00 0.00 94 1020.2
20260502061021 10 0 0.0 0.0 0.00 0.00 0.00 94 1020.1
20260502060021 10 0 0.0 0.0 0.00 0.00 0.00 95 1020.1
20260502054021 9 0 0.0 0.0 0.00 0.00 0.00 95 1020.1
20260502043022 6 0 0.0 0.0 0.00 0.00 0.00 98 1019.8
20260502042038 5 0 0.0 0.0 0.00 0.00 0.00 97 1019.9
20260502041035 6 0 0.0 0.0 0.00 0.00 0.00 97 1020.1
20260502040021 6 0 0.0 0.0 0.00 0.00 0.00 96 1020.1
20260502035021 6 0 0.0 0.0 0.00 0.00 0.00 96 1020.1